PIMOHWEATHER Station Historical Data
Daily Summary for November 03, 2020 Units:  Metric    English   Both
Daily Weekly Monthly Yearly
  High: Low: Average:
Temperature: 33.0 °C 25.0 °C 29.1 °C
Dew Point: 25.0 °C 22.0 °C 23.7 °C
Humidity: 85% 58% 73%
Wind Speed: 26km/h 0km/h 9.3km/h
Wind Gust: 36km/h - -
Wind- - SSW
Pressure: 1014.7 hPa 1010.5 hPa -
Precipitation: 0.00 mm    
 
 
Tabular Data for November 03, 2020
Time Temperature Dew Point Pressure Wind Wind Speed Wind Gust Humidity Rainfall Rate (Hourly) solar
00:04 28.0 °C 24.0 °C 1013.2 hPa Calm     80% 0.00 mm 0.00 W/m2
00:09 28.0 °C 24.0 °C 1013.0 hPa Calm   4 km/h 80% 0.00 mm 0.00 W/m2
00:14 28.0 °C 24.0 °C 1013.0 hPa Calm     80% 0.00 mm 0.00 W/m2
00:19 28.0 °C 24.0 °C 1012.8 hPa Calm     80% 0.00 mm 0.00 W/m2
00:24 28.0 °C 24.0 °C 1012.7 hPa Calm     80% 0.00 mm 0.00 W/m2
00:29 27.0 °C 24.0 °C 1012.6 hPa NW 1 km/h 4 km/h 81% 0.00 mm 0.00 W/m2
00:34 27.0 °C 24.0 °C 1012.7 hPa NW 4 km/h 4 km/h 81% 0.00 mm 0.00 W/m2
00:39 27.0 °C 24.0 °C 1012.6 hPa NE 6 km/h 8 km/h 81% 0.00 mm 0.00 W/m2
00:44 27.0 °C 24.0 °C 1012.7 hPa NW 1 km/h 4 km/h 81% 0.00 mm 0.00 W/m2
00:49 27.0 °C 24.0 °C 1012.6 hPa Calm     81% 0.00 mm 0.00 W/m2
00:54 27.0 °C 24.0 °C 1012.5 hPa Calm     81% 0.00 mm 0.00 W/m2
00:59 27.0 °C 24.0 °C 1012.5 hPa Calm     82% 0.00 mm 0.00 W/m2
01:04 27.0 °C 24.0 °C 1012.6 hPa Calm     82% 0.00 mm 0.00 W/m2
01:09 27.0 °C 24.0 °C 1012.4 hPa Calm     82% 0.00 mm 0.00 W/m2
01:14 27.0 °C 24.0 °C 1012.4 hPa NW 3 km/h 4 km/h 82% 0.00 mm 0.00 W/m2
01:19 27.0 °C 24.0 °C 1012.3 hPa Calm     82% 0.00 mm 0.00 W/m2
01:24 27.0 °C 24.0 °C 1012.3 hPa Calm   4 km/h 83% 0.00 mm 0.00 W/m2
01:29 27.0 °C 24.0 °C 1012.3 hPa NW 2 km/h 4 km/h 83% 0.00 mm 0.00 W/m2
01:34 27.0 °C 24.0 °C 1012.2 hPa Calm   4 km/h 83% 0.00 mm 0.00 W/m2
01:39 27.0 °C 24.0 °C 1012.3 hPa Calm     83% 0.00 mm 0.00 W/m2
01:44 27.0 °C 24.0 °C 1012.1 hPa Calm     83% 0.00 mm 0.00 W/m2
01:49 27.0 °C 24.0 °C 1012.1 hPa NNE 3 km/h 4 km/h 83% 0.00 mm 0.00 W/m2
01:54 27.0 °C 24.0 °C 1012.2 hPa NNE 1 km/h 4 km/h 83% 0.00 mm 0.00 W/m2
01:59 27.0 °C 24.0 °C 1012.2 hPa NNE 1 km/h 4 km/h 83% 0.00 mm 0.00 W/m2
02:04 27.0 °C 24.0 °C 1012.2 hPa NE 5 km/h 8 km/h 84% 0.00 mm 0.00 W/m2
02:09 27.0 °C 24.0 °C 1012.2 hPa ENE 3 km/h 4 km/h 84% 0.00 mm 0.00 W/m2
02:14 27.0 °C 24.0 °C 1012.2 hPa ENE 5 km/h 8 km/h 84% 0.00 mm 0.00 W/m2
02:19 27.0 °C 24.0 °C 1012.2 hPa East 5 km/h 8 km/h 84% 0.00 mm 0.00 W/m2
02:24 27.0 °C 24.0 °C 1012.1 hPa East 6 km/h 8 km/h 84% 0.00 mm 0.00 W/m2
02:29 26.0 °C 24.0 °C 1012.0 hPa ENE 4 km/h 8 km/h 85% 0.00 mm 0.00 W/m2
02:34 26.0 °C 24.0 °C 1012.0 hPa ENE 4 km/h 4 km/h 85% 0.00 mm 0.00 W/m2
02:39 26.0 °C 24.0 °C 1012.1 hPa ENE 6 km/h 12 km/h 85% 0.00 mm 0.00 W/m2
02:44 26.0 °C 24.0 °C 1012.0 hPa NNE 3 km/h 4 km/h 85% 0.00 mm 0.00 W/m2
02:49 26.0 °C 24.0 °C 1012.0 hPa NE 1 km/h 4 km/h 85% 0.00 mm 0.00 W/m2
02:54 26.0 °C 24.0 °C 1012.0 hPa NE 5 km/h 8 km/h 85% 0.00 mm 0.00 W/m2
02:59 26.0 °C 24.0 °C 1012.1 hPa ENE 5 km/h 8 km/h 85% 0.00 mm 0.00 W/m2
03:04 26.0 °C 24.0 °C 1012.1 hPa NE 7 km/h 8 km/h 85% 0.00 mm 0.00 W/m2
03:09 26.0 °C 24.0 °C 1012.0 hPa NE 4 km/h 4 km/h 85% 0.00 mm 0.00 W/m2
03:14 26.0 °C 24.0 °C 1011.9 hPa NE 2 km/h 4 km/h 85% 0.00 mm 0.00 W/m2
03:19 26.0 °C 23.0 °C 1012.0 hPa ENE 8 km/h 12 km/h 85% 0.00 mm 0.00 W/m2
03:24 26.0 °C 23.0 °C 1011.9 hPa ENE 9 km/h 12 km/h 85% 0.00 mm 0.00 W/m2
03:29 26.0 °C 23.0 °C 1012.1 hPa ENE 6 km/h 12 km/h 85% 0.00 mm 0.00 W/m2
03:34 26.0 °C 23.0 °C 1012.1 hPa ENE 8 km/h 8 km/h 85% 0.00 mm 0.00 W/m2
03:39 26.0 °C 23.0 °C 1012.2 hPa ENE 6 km/h 8 km/h 85% 0.00 mm 0.00 W/m2
03:44 26.0 °C 23.0 °C 1012.0 hPa ENE 8 km/h 8 km/h 84% 0.00 mm 0.00 W/m2
03:49 26.0 °C 23.0 °C 1012.1 hPa NE 5 km/h 8 km/h 84% 0.00 mm 0.00 W/m2
03:54 26.0 °C 23.0 °C 1012.1 hPa NE 4 km/h 8 km/h 84% 0.00 mm 0.00 W/m2
03:59 26.0 °C 23.0 °C 1012.2 hPa ENE 3 km/h 4 km/h 84% 0.00 mm 0.00 W/m2
04:04 26.0 °C 23.0 °C 1012.2 hPa NE 5 km/h 8 km/h 84% 0.00 mm 0.00 W/m2
04:09 26.0 °C 23.0 °C 1012.0 hPa ENE 8 km/h 8 km/h 84% 0.00 mm 0.00 W/m2
04:14 26.0 °C 23.0 °C 1012.0 hPa ENE 6 km/h 8 km/h 84% 0.00 mm 0.00 W/m2
04:19 26.0 °C 23.0 °C 1012.3 hPa NE 5 km/h 8 km/h 84% 0.00 mm 0.00 W/m2
04:24 26.0 °C 23.0 °C 1012.0 hPa NE 5 km/h 8 km/h 84% 0.00 mm 0.00 W/m2
04:29 26.0 °C 23.0 °C 1012.1 hPa East 5 km/h 8 km/h 84% 0.00 mm 0.00 W/m2
04:34 26.0 °C 23.0 °C 1012.4 hPa ENE 5 km/h 8 km/h 84% 0.00 mm 0.00 W/m2
04:39 26.0 °C 23.0 °C 1012.0 hPa ENE 4 km/h 4 km/h 83% 0.00 mm 0.00 W/m2
04:44 26.0 °C 23.0 °C 1012.3 hPa NE 5 km/h 8 km/h 83% 0.00 mm 0.00 W/m2
04:49 26.0 °C 23.0 °C 1012.3 hPa NE 3 km/h 4 km/h 83% 0.00 mm 0.00 W/m2
04:54 26.0 °C 23.0 °C 1012.2 hPa ENE 5 km/h 8 km/h 83% 0.00 mm 0.00 W/m2
04:59 26.0 °C 23.0 °C 1012.1 hPa Calm   4 km/h 83% 0.00 mm 0.00 W/m2
05:04 26.0 °C 23.0 °C 1012.3 hPa Calm   4 km/h 83% 0.00 mm 0.00 W/m2
05:09 26.0 °C 23.0 °C 1012.4 hPa North 3 km/h 4 km/h 82% 0.00 mm 0.00 W/m2
05:14 26.0 °C 23.0 °C 1012.5 hPa NNW 1 km/h 4 km/h 82% 0.00 mm 0.00 W/m2
05:19 26.0 °C 23.0 °C 1012.5 hPa NW 1 km/h 4 km/h 82% 0.00 mm 0.00 W/m2
05:24 26.0 °C 23.0 °C 1012.5 hPa NW 2 km/h 4 km/h 82% 0.00 mm 0.00 W/m2
05:29 26.0 °C 23.0 °C 1012.4 hPa NW 1 km/h 4 km/h 82% 0.00 mm 0.00 W/m2
05:34 26.0 °C 23.0 °C 1012.6 hPa NW 5 km/h 8 km/h 82% 0.00 mm 0.00 W/m2
05:44 26.0 °C 23.0 °C 1012.9 hPa NW 4 km/h 4 km/h 83% 0.00 mm 0.00 W/m2
05:49 26.0 °C 22.0 °C 1013.0 hPa NW 4 km/h 4 km/h 83% 0.00 mm 0.00 W/m2
05:54 26.0 °C 22.0 °C 1012.8 hPa NW 4 km/h 8 km/h 83% 0.00 mm 1.71 W/m2
05:59 25.0 °C 22.0 °C 1013.2 hPa North 7 km/h 8 km/h 83% 0.00 mm 5.63 W/m2
06:04 25.0 °C 22.0 °C 1012.9 hPa North 4 km/h 8 km/h 83% 0.00 mm 9.91 W/m2
06:09 25.0 °C 22.0 °C 1013.2 hPa North 4 km/h 4 km/h 83% 0.00 mm 14.68 W/m2
06:14 25.0 °C 22.0 °C 1013.2 hPa North 7 km/h 8 km/h 83% 0.00 mm 19.45 W/m2
06:19 25.0 °C 22.0 °C 1013.2 hPa North 3 km/h 4 km/h 83% 0.00 mm 25.07 W/m2
06:24 26.0 °C 22.0 °C 1013.3 hPa North 4 km/h 4 km/h 82% 0.00 mm 29.85 W/m2
06:29 26.0 °C 22.0 °C 1013.4 hPa North 4 km/h 4 km/h 82% 0.00 mm 34.25 W/m2
06:34 26.0 °C 22.0 °C 1013.2 hPa North 6 km/h 8 km/h 82% 0.00 mm 40.24 W/m2
06:39 26.0 °C 22.0 °C 1013.4 hPa North 4 km/h 4 km/h 81% 0.00 mm 45.87 W/m2
06:44 26.0 °C 22.0 °C 1013.3 hPa North 1 km/h 4 km/h 81% 0.00 mm 51.14 W/m2
06:49 26.0 °C 23.0 °C 1013.4 hPa North 3 km/h 4 km/h 80% 0.00 mm 55.05 W/m2
06:54 26.0 °C 23.0 °C 1013.5 hPa North 5 km/h 8 km/h 79% 0.00 mm 59.82 W/m2
06:59 26.0 °C 23.0 °C 1013.6 hPa North 4 km/h 4 km/h 79% 0.00 mm 62.88 W/m2
07:04 27.0 °C 23.0 °C 1013.5 hPa North 4 km/h 4 km/h 78% 0.00 mm 66.80 W/m2
07:09 27.0 °C 23.0 °C 1013.6 hPa NNE 2 km/h 4 km/h 78% 0.00 mm 71.07 W/m2
07:14 27.0 °C 23.0 °C 1013.8 hPa NNE 4 km/h 4 km/h 77% 0.00 mm 77.19 W/m2
07:19 27.0 °C 23.0 °C 1013.9 hPa North 7 km/h 8 km/h 76% 0.00 mm 79.76 W/m2
07:24 28.0 °C 23.0 °C 1014.0 hPa North 10 km/h 12 km/h 76% 0.00 mm 87.10 W/m2
07:29 28.0 °C 23.0 °C 1013.9 hPa North 8 km/h 12 km/h 75% 0.00 mm 90.16 W/m2
07:34 28.0 °C 23.0 °C 1013.9 hPa NNE 5 km/h 8 km/h 75% 0.00 mm 86.24 W/m2
07:39 28.0 °C 23.0 °C 1014.0 hPa North 13 km/h 16 km/h 75% 0.00 mm 90.65 W/m2
07:44 28.0 °C 23.0 °C 1013.9 hPa North 8 km/h 8 km/h 74% 0.00 mm 92.73 W/m2
07:49 28.0 °C 23.0 °C 1013.9 hPa NE 6 km/h 8 km/h 73% 0.00 mm 94.93 W/m2
07:54 28.0 °C 23.0 °C 1013.7 hPa North 6 km/h 8 km/h 73% 0.00 mm 96.65 W/m2
07:59 29.0 °C 23.0 °C 1013.9 hPa North 8 km/h 12 km/h 72% 0.00 mm 249.81 W/m2
08:04 29.0 °C 23.0 °C 1013.9 hPa East 5 km/h 8 km/h 71% 0.00 mm 272.32 W/m2
08:09 29.0 °C 23.0 °C 1013.8 hPa SW 9 km/h 12 km/h 70% 0.00 mm 296.66 W/m2
08:14 30.0 °C 23.0 °C 1013.9 hPa WSW 3 km/h 4 km/h 69% 0.00 mm 317.95 W/m2
08:19 30.0 °C 23.0 °C 1014.0 hPa WNW 8 km/h 8 km/h 67% 0.00 mm 352.20 W/m2
08:24 30.0 °C 23.0 °C 1014.2 hPa NNW 10 km/h 12 km/h 66% 0.00 mm 358.32 W/m2
08:29 31.0 °C 23.0 °C 1014.2 hPa WNW 7 km/h 8 km/h 66% 0.00 mm 468.91 W/m2
08:34 31.0 °C 24.0 °C 1014.2 hPa WSW 8 km/h 12 km/h 65% 0.00 mm 493.13 W/m2
08:39 31.0 °C 23.0 °C 1014.1 hPa SW 12 km/h 16 km/h 64% 0.00 mm 522.25 W/m2
08:44 31.0 °C 23.0 °C 1014.1 hPa ENE 6 km/h 8 km/h 64% 0.00 mm 547.82 W/m2
08:49 31.0 °C 23.0 °C 1014.1 hPa West 6 km/h 8 km/h 63% 0.00 mm 555.28 W/m2
08:54 31.0 °C 24.0 °C 1014.3 hPa SSW 8 km/h 8 km/h 63% 0.00 mm 531.79 W/m2
08:59 31.0 °C 24.0 °C 1014.2 hPa East 13 km/h 16 km/h 64% 0.00 mm 525.67 W/m2
09:04 32.0 °C 24.0 °C 1014.3 hPa SSW 8 km/h 12 km/h 63% 0.00 mm 568.25 W/m2
09:09 32.0 °C 24.0 °C 1014.3 hPa NW 8 km/h 12 km/h 62% 0.00 mm 557.85 W/m2
09:14 32.0 °C 24.0 °C 1014.4 hPa WSW 13 km/h 16 km/h 62% 0.00 mm 555.65 W/m2
09:19 31.0 °C 23.0 °C 1014.3 hPa SW 11 km/h 16 km/h 62% 0.00 mm 454.11 W/m2
09:24 31.0 °C 23.0 °C 1014.5 hPa North 5 km/h 8 km/h 62% 0.00 mm 620.24 W/m2
09:29 32.0 °C 23.0 °C 1014.3 hPa West 9 km/h 12 km/h 62% 0.00 mm 682.75 W/m2
09:34 32.0 °C 23.0 °C 1014.5 hPa NW 6 km/h 12 km/h 61% 0.00 mm 680.19 W/m2
09:39 32.0 °C 23.0 °C 1014.4 hPa West 5 km/h 8 km/h 61% 0.00 mm 402.49 W/m2
09:44 31.0 °C 23.0 °C 1014.3 hPa SW 18 km/h 20 km/h 62% 0.00 mm 708.82 W/m2
09:49 31.0 °C 23.0 °C 1014.4 hPa WSW 12 km/h 20 km/h 63% 0.00 mm 735.24 W/m2
09:54 31.0 °C 24.0 °C 1014.4 hPa North 18 km/h 20 km/h 66% 0.00 mm 770.35 W/m2
09:59 31.0 °C 24.0 °C 1014.3 hPa West 15 km/h 20 km/h 65% 0.00 mm 759.95 W/m2
10:04 32.0 °C 24.0 °C 1014.2 hPa WSW 10 km/h 12 km/h 65% 0.00 mm 696.21 W/m2
10:09 32.0 °C 24.0 °C 1014.2 hPa NNW 10 km/h 12 km/h 66% 0.00 mm 269.38 W/m2
10:14 31.0 °C 24.0 °C 1014.2 hPa West 11 km/h 20 km/h 66% 0.00 mm 606.42 W/m2
10:19 31.0 °C 24.0 °C 1014.2 hPa NNW 20 km/h 28 km/h 67% 0.00 mm 273.66 W/m2
10:24 31.0 °C 24.0 °C 1014.1 hPa West 19 km/h 28 km/h 67% 0.00 mm 572.16 W/m2
10:29 31.0 °C 24.0 °C 1014.2 hPa NNW 21 km/h 24 km/h 68% 0.00 mm 487.51 W/m2
10:34 30.0 °C 24.0 °C 1014.1 hPa North 16 km/h 20 km/h 69% 0.00 mm 186.93 W/m2
10:39 30.0 °C 24.0 °C 1014.1 hPa NNW 12 km/h 16 km/h 69% 0.00 mm 346.95 W/m2
10:44 31.0 °C 24.0 °C 1014.0 hPa West 10 km/h 12 km/h 68% 0.00 mm 807.29 W/m2
10:49 31.0 °C 24.0 °C 1014.1 hPa North 17 km/h 24 km/h 65% 0.00 mm 743.07 W/m2
10:54 31.0 °C 24.0 °C 1013.9 hPa NNW 17 km/h 20 km/h 67% 0.00 mm 478.45 W/m2
10:59 31.0 °C 24.0 °C 1013.8 hPa WNW 13 km/h 16 km/h 66% 0.00 mm 715.30 W/m2
11:04 32.0 °C 24.0 °C 1013.6 hPa WNW 13 km/h 16 km/h 65% 0.00 mm 699.27 W/m2
11:09 32.0 °C 24.0 °C 1013.5 hPa NW 15 km/h 20 km/h 63% 0.00 mm 741.72 W/m2
11:14 32.0 °C 24.0 °C 1013.5 hPa NNW 15 km/h 20 km/h 62% 0.00 mm 755.67 W/m2
11:19 32.0 °C 24.0 °C 1013.4 hPa NNW 20 km/h 24 km/h 62% 0.00 mm 708.82 W/m2
11:24 32.0 °C 24.0 °C 1013.3 hPa North 20 km/h 28 km/h 63% 0.00 mm 614.62 W/m2
11:29 32.0 °C 24.0 °C 1013.1 hPa NW 17 km/h 24 km/h 61% 0.00 mm 708.33 W/m2
11:34 33.0 °C 24.0 °C 1013.0 hPa West 16 km/h 24 km/h 61% 0.00 mm 694.50 W/m2
11:39 33.0 °C 24.0 °C 1012.9 hPa WSW 11 km/h 16 km/h 61% 0.00 mm 682.39 W/m2
11:44 33.0 °C 24.0 °C 1013.0 hPa South 17 km/h 28 km/h 61% 0.00 mm 688.87 W/m2
11:49 33.0 °C 24.0 °C 1012.9 hPa North 24 km/h 32 km/h 61% 0.00 mm 718.72 W/m2
11:54 33.0 °C 24.0 °C 1012.7 hPa West 16 km/h 28 km/h 60% 0.00 mm 704.90 W/m2
11:59 33.0 °C 24.0 °C 1012.5 hPa NW 20 km/h 28 km/h 60% 0.00 mm 682.39 W/m2
12:04 33.0 °C 24.0 °C 1012.5 hPa NW 21 km/h 28 km/h 59% 0.00 mm 667.58 W/m2
12:09 33.0 °C 24.0 °C 1012.5 hPa WNW 22 km/h 24 km/h 59% 0.00 mm 684.96 W/m2
12:14 33.0 °C 24.0 °C 1012.3 hPa SSW 25 km/h 28 km/h 60% 0.00 mm 655.48 W/m2
12:19 33.0 °C 24.0 °C 1012.4 hPa NNW 14 km/h 20 km/h 60% 0.00 mm 683.24 W/m2
12:24 33.0 °C 24.0 °C 1012.4 hPa North 21 km/h 28 km/h 59% 0.00 mm 701.84 W/m2
12:29 33.0 °C 24.0 °C 1012.2 hPa SW 23 km/h 28 km/h 59% 0.00 mm 665.87 W/m2
12:34 33.0 °C 24.0 °C 1012.3 hPa NW 8 km/h 12 km/h 59% 0.00 mm 654.13 W/m2
12:39 33.0 °C 24.0 °C 1012.2 hPa WSW 13 km/h 16 km/h 58% 0.00 mm 638.11 W/m2
12:44 33.0 °C 24.0 °C 1012.0 hPa West 19 km/h 24 km/h 58% 0.00 mm 619.38 W/m2
12:49 33.0 °C 24.0 °C 1011.8 hPa NW 26 km/h 36 km/h 59% 0.00 mm 620.73 W/m2
12:54 33.0 °C 24.0 °C 1011.9 hPa WSW 26 km/h 32 km/h 59% 0.00 mm 609.48 W/m2
12:59 33.0 °C 24.0 °C 1011.8 hPa NW 24 km/h 32 km/h 59% 0.00 mm 632.84 W/m2
13:04 33.0 °C 24.0 °C 1011.7 hPa NNW 18 km/h 28 km/h 60% 0.00 mm 619.38 W/m2
13:09 33.0 °C 24.0 °C 1011.8 hPa NNW 13 km/h 16 km/h 60% 0.00 mm 603.36 W/m2
13:14 33.0 °C 24.0 °C 1011.5 hPa WSW 22 km/h 28 km/h 60% 0.00 mm 588.68 W/m2
13:19 33.0 °C 24.0 °C 1011.5 hPa WSW 22 km/h 28 km/h 59% 0.00 mm 570.45 W/m2
13:24 33.0 °C 24.0 °C 1011.5 hPa SW 24 km/h 28 km/h 59% 0.00 mm 578.16 W/m2
13:29 33.0 °C 24.0 °C 1011.5 hPa WNW 24 km/h 28 km/h 60% 0.00 mm 556.99 W/m2
13:34 33.0 °C 24.0 °C 1011.5 hPa NNW 12 km/h 20 km/h 60% 0.00 mm 534.36 W/m2
13:39 33.0 °C 24.0 °C 1011.2 hPa West 17 km/h 28 km/h 60% 0.00 mm 531.30 W/m2
13:44 33.0 °C 24.0 °C 1011.3 hPa NW 13 km/h 16 km/h 59% 0.00 mm 543.91 W/m2
13:49 33.0 °C 24.0 °C 1011.3 hPa NNW 12 km/h 16 km/h 59% 0.00 mm 465.37 W/m2
13:54 33.0 °C 24.0 °C 1011.2 hPa NNE 10 km/h 16 km/h 59% 0.00 mm 408.97 W/m2
13:59 33.0 °C 24.0 °C 1011.2 hPa WSW 19 km/h 28 km/h 60% 0.00 mm 454.96 W/m2
14:04 33.0 °C 24.0 °C 1011.0 hPa NW 15 km/h 24 km/h 60% 0.00 mm 483.23 W/m2
14:09 33.0 °C 24.0 °C 1010.9 hPa WSW 15 km/h 16 km/h 58% 0.00 mm 473.69 W/m2
14:14 33.0 °C 24.0 °C 1011.0 hPa SW 22 km/h 28 km/h 60% 0.00 mm 459.74 W/m2
14:19 33.0 °C 24.0 °C 1011.0 hPa NW 22 km/h 24 km/h 59% 0.00 mm 472.83 W/m2
14:24 33.0 °C 24.0 °C 1010.7 hPa WSW 20 km/h 24 km/h 59% 0.00 mm 461.94 W/m2
14:29 33.0 °C 24.0 °C 1010.8 hPa NW 19 km/h 24 km/h 59% 0.00 mm 473.69 W/m2
14:34 33.0 °C 24.0 °C 1010.8 hPa NNW 24 km/h 36 km/h 61% 0.00 mm 465.37 W/m2
14:39 33.0 °C 24.0 °C 1010.7 hPa NNW 24 km/h 36 km/h 62% 0.00 mm 249.81 W/m2
14:44 32.0 °C 24.0 °C 1010.7 hPa NNW 19 km/h 32 km/h 62% 0.00 mm 230.24 W/m2
14:49 33.0 °C 24.0 °C 1010.5 hPa WNW 13 km/h 20 km/h 61% 0.00 mm 225.95 W/m2
14:54 33.0 °C 24.0 °C 1010.7 hPa NNW 21 km/h 24 km/h 61% 0.00 mm 215.56 W/m2
14:59 33.0 °C 24.0 °C 1010.7 hPa NNW 22 km/h 28 km/h 61% 0.00 mm 194.76 W/m2
15:04 33.0 °C 24.0 °C 1010.6 hPa NNW 21 km/h 28 km/h 61% 0.00 mm 187.78 W/m2
15:09 33.0 °C 24.0 °C 1010.8 hPa NW 10 km/h 16 km/h 60% 0.00 mm 183.50 W/m2
15:14 33.0 °C 24.0 °C 1010.6 hPa SW 19 km/h 24 km/h 59% 0.00 mm 170.90 W/m2
15:19 33.0 °C 24.0 °C 1010.7 hPa WSW 15 km/h 20 km/h 60% 0.00 mm 170.05 W/m2
15:24 33.0 °C 24.0 °C 1010.6 hPa North 11 km/h 16 km/h 61% 0.00 mm 170.05 W/m2
15:29 32.0 °C 24.0 °C 1010.7 hPa West 19 km/h 24 km/h 62% 0.00 mm 166.50 W/m2
15:34 32.0 °C 24.0 °C 1010.7 hPa NNW 15 km/h 20 km/h 62% 0.00 mm 166.99 W/m2
15:39 32.0 °C 24.0 °C 1010.8 hPa North 18 km/h 20 km/h 62% 0.00 mm 166.99 W/m2
15:44 32.0 °C 24.0 °C 1010.8 hPa NNW 17 km/h 20 km/h 62% 0.00 mm 163.07 W/m2
15:49 32.0 °C 24.0 °C 1010.9 hPa NW 13 km/h 16 km/h 62% 0.00 mm 153.04 W/m2
15:54 32.0 °C 24.0 °C 1010.9 hPa WSW 13 km/h 16 km/h 62% 0.00 mm 147.05 W/m2
15:59 32.0 °C 24.0 °C 1010.9 hPa SSW 22 km/h 28 km/h 63% 0.00 mm 147.05 W/m2
16:04 32.0 °C 24.0 °C 1011.0 hPa SW 18 km/h 24 km/h 63% 0.00 mm 130.53 W/m2
16:09 32.0 °C 24.0 °C 1011.1 hPa SSW 22 km/h 24 km/h 63% 0.00 mm 101.41 W/m2
16:14 32.0 °C 24.0 °C 1011.3 hPa SSW 25 km/h 32 km/h 66% 0.00 mm 74.14 W/m2
16:19 31.0 °C 24.0 °C 1011.3 hPa SSW 22 km/h 32 km/h 67% 0.00 mm 70.22 W/m2
16:24 31.0 °C 24.0 °C 1011.4 hPa SSW 25 km/h 32 km/h 69% 0.00 mm 49.79 W/m2
16:29 30.0 °C 24.0 °C 1011.4 hPa SSW 20 km/h 28 km/h 69% 0.00 mm 36.33 W/m2
16:34 30.0 °C 24.0 °C 1011.4 hPa SSW 20 km/h 32 km/h 69% 0.00 mm 30.70 W/m2
16:39 30.0 °C 24.0 °C 1011.4 hPa SW 14 km/h 24 km/h 69% 0.00 mm 26.79 W/m2
16:44 30.0 °C 24.0 °C 1011.6 hPa SSW 12 km/h 20 km/h 69% 0.00 mm 18.11 W/m2
16:49 30.0 °C 24.0 °C 1011.7 hPa SW 22 km/h 24 km/h 72% 0.00 mm 14.31 W/m2
16:54 30.0 °C 24.0 °C 1011.8 hPa SW 17 km/h 20 km/h 73% 0.00 mm 9.05 W/m2
16:59 30.0 °C 24.0 °C 1012.0 hPa SW 16 km/h 24 km/h 73% 0.00 mm 4.77 W/m2
17:04 30.0 °C 24.0 °C 1012.0 hPa SSW 12 km/h 24 km/h 72% 0.00 mm 2.08 W/m2
17:09 30.0 °C 24.0 °C 1012.1 hPa SW 13 km/h 16 km/h 73% 0.00 mm 1.71 W/m2
17:14 30.0 °C 24.0 °C 1012.2 hPa SSW 10 km/h 16 km/h 73% 0.00 mm 0.36 W/m2
17:19 29.0 °C 24.0 °C 1012.2 hPa WSW 10 km/h 12 km/h 73% 0.00 mm 0.00 W/m2
17:24 29.0 °C 24.0 °C 1012.1 hPa West 6 km/h 12 km/h 73% 0.00 mm 0.00 W/m2
17:29 30.0 °C 24.0 °C 1012.2 hPa SW 9 km/h 12 km/h 73% 0.00 mm 0.00 W/m2
17:34 30.0 °C 24.0 °C 1012.4 hPa SW 10 km/h 16 km/h 73% 0.00 mm 0.00 W/m2
17:39 30.0 °C 24.0 °C 1012.5 hPa SW 8 km/h 8 km/h 73% 0.00 mm 0.00 W/m2
17:44 30.0 °C 24.0 °C 1012.4 hPa WNW 7 km/h 12 km/h 73% 0.00 mm 0.00 W/m2
17:49 30.0 °C 24.0 °C 1012.4 hPa SW 8 km/h 12 km/h 72% 0.00 mm 0.00 W/m2
17:54 30.0 °C 24.0 °C 1012.3 hPa WSW 10 km/h 12 km/h 72% 0.00 mm 0.00 W/m2
17:59 30.0 °C 24.0 °C 1012.1 hPa NNW 5 km/h 12 km/h 71% 0.00 mm 0.00 W/m2
18:04 30.0 °C 24.0 °C 1012.2 hPa WSW 6 km/h 8 km/h 71% 0.00 mm 0.00 W/m2
18:09 30.0 °C 24.0 °C 1012.3 hPa West 5 km/h 12 km/h 71% 0.00 mm 0.00 W/m2
18:14 30.0 °C 24.0 °C 1012.4 hPa South 6 km/h 8 km/h 72% 0.00 mm 0.00 W/m2
18:19 30.0 °C 24.0 °C 1012.7 hPa East 19 km/h 24 km/h 75% 0.00 mm 0.00 W/m2
18:24 29.0 °C 24.0 °C 1012.7 hPa ENE 10 km/h 12 km/h 75% 0.00 mm 0.00 W/m2
18:29 29.0 °C 24.0 °C 1012.6 hPa ENE 12 km/h 16 km/h 75% 0.00 mm 0.00 W/m2
18:34 29.0 °C 24.0 °C 1012.7 hPa ENE 9 km/h 12 km/h 75% 0.00 mm 0.00 W/m2
18:39 29.0 °C 23.0 °C 1012.6 hPa ENE 14 km/h 16 km/h 74% 0.00 mm 0.00 W/m2
18:44 28.0 °C 23.0 °C 1012.7 hPa ENE 16 km/h 20 km/h 75% 0.00 mm 0.00 W/m2
18:49 28.0 °C 23.0 °C 1012.8 hPa ENE 10 km/h 12 km/h 75% 0.00 mm 0.00 W/m2
18:54 28.0 °C 24.0 °C 1013.1 hPa East 14 km/h 20 km/h 76% 0.00 mm 0.00 W/m2
18:59 28.0 °C 23.0 °C 1013.2 hPa East 13 km/h 16 km/h 76% 0.00 mm 0.00 W/m2
19:04 28.0 °C 23.0 °C 1013.3 hPa NE 9 km/h 12 km/h 75% 0.00 mm 0.00 W/m2
19:09 28.0 °C 23.0 °C 1013.5 hPa ENE 12 km/h 16 km/h 75% 0.00 mm 0.00 W/m2
19:14 28.0 °C 23.0 °C 1013.5 hPa ENE 12 km/h 16 km/h 75% 0.00 mm 0.00 W/m2
19:19 28.0 °C 23.0 °C 1013.7 hPa North 5 km/h 8 km/h 75% 0.00 mm 0.00 W/m2
19:24 28.0 °C 23.0 °C 1013.7 hPa NNE 5 km/h 8 km/h 75% 0.00 mm 0.00 W/m2
19:29 28.0 °C 23.0 °C 1013.9 hPa NE 10 km/h 12 km/h 75% 0.00 mm 0.00 W/m2
19:34 28.0 °C 24.0 °C 1014.0 hPa NE 9 km/h 12 km/h 76% 0.00 mm 0.00 W/m2
19:39 28.0 °C 24.0 °C 1014.2 hPa NE 11 km/h 12 km/h 77% 0.00 mm 0.00 W/m2
19:44 28.0 °C 23.0 °C 1014.3 hPa NE 9 km/h 12 km/h 77% 0.00 mm 0.00 W/m2
19:49 28.0 °C 23.0 °C 1014.5 hPa ENE 10 km/h 12 km/h 76% 0.00 mm 0.00 W/m2
19:54 28.0 °C 23.0 °C 1014.6 hPa ESE 21 km/h 28 km/h 76% 0.00 mm 0.00 W/m2
19:59 28.0 °C 24.0 °C 1014.5 hPa ESE 19 km/h 24 km/h 78% 0.00 mm 0.00 W/m2
20:04 28.0 °C 24.0 °C 1014.4 hPa ENE 9 km/h 12 km/h 79% 0.00 mm 0.00 W/m2
20:09 28.0 °C 23.0 °C 1014.5 hPa North 12 km/h 16 km/h 77% 0.00 mm 0.00 W/m2
20:14 28.0 °C 23.0 °C 1014.7 hPa NNE 5 km/h 8 km/h 76% 0.00 mm 0.00 W/m2
20:19 28.0 °C 23.0 °C 1014.5 hPa WNW 13 km/h 20 km/h 76% 0.00 mm 0.00 W/m2
20:24 28.0 °C 23.0 °C 1014.4 hPa WNW 8 km/h 12 km/h 75% 0.00 mm 0.00 W/m2
20:29 28.0 °C 23.0 °C 1014.4 hPa West 7 km/h 8 km/h 76% 0.00 mm 0.00 W/m2
20:34 28.0 °C 24.0 °C 1014.4 hPa West 5 km/h 8 km/h 77% 0.00 mm 0.00 W/m2
20:39 28.0 °C 24.0 °C 1014.4 hPa WNW 4 km/h 4 km/h 77% 0.00 mm 0.00 W/m2
20:44 28.0 °C 24.0 °C 1014.4 hPa NE 6 km/h 8 km/h 77% 0.00 mm 0.00 W/m2
20:49 28.0 °C 24.0 °C 1014.3 hPa NE 8 km/h 12 km/h 78% 0.00 mm 0.00 W/m2
20:54 28.0 °C 24.0 °C 1014.3 hPa ENE 6 km/h 8 km/h 78% 0.00 mm 0.00 W/m2
20:59 28.0 °C 24.0 °C 1014.4 hPa ENE 8 km/h 12 km/h 79% 0.00 mm 0.00 W/m2
21:04 28.0 °C 24.0 °C 1014.4 hPa ENE 5 km/h 8 km/h 79% 0.00 mm 0.00 W/m2
21:09 28.0 °C 24.0 °C 1014.4 hPa NNE 4 km/h 4 km/h 79% 0.00 mm 0.00 W/m2
21:14 28.0 °C 24.0 °C 1014.5 hPa WNW 4 km/h 4 km/h 80% 0.00 mm 0.00 W/m2
21:19 28.0 °C 24.0 °C 1014.5 hPa West 5 km/h 8 km/h 80% 0.00 mm 0.00 W/m2
21:24 28.0 °C 24.0 °C 1014.3 hPa WNW 6 km/h 8 km/h 81% 0.00 mm 0.00 W/m2
21:29 28.0 °C 24.0 °C 1014.4 hPa West 8 km/h 8 km/h 81% 0.00 mm 0.00 W/m2
21:34 28.0 °C 24.0 °C 1014.5 hPa WNW 4 km/h 4 km/h 81% 0.00 mm 0.00 W/m2
21:39 28.0 °C 24.0 °C 1014.4 hPa SSW 3 km/h 4 km/h 81% 0.00 mm 0.00 W/m2
21:44 28.0 °C 24.0 °C 1014.4 hPa WNW 5 km/h 8 km/h 81% 0.00 mm 0.00 W/m2
21:49 28.0 °C 24.0 °C 1014.2 hPa WNW 5 km/h 8 km/h 81% 0.00 mm 0.00 W/m2
21:54 28.0 °C 25.0 °C 1014.5 hPa West 6 km/h 8 km/h 82% 0.00 mm 0.00 W/m2
21:59 28.0 °C 25.0 °C 1014.4 hPa West 5 km/h 12 km/h 82% 0.00 mm 0.00 W/m2
22:04 28.0 °C 25.0 °C 1014.2 hPa North 3 km/h 4 km/h 82% 0.00 mm 0.00 W/m2
22:09 28.0 °C 25.0 °C 1014.3 hPa West 5 km/h 8 km/h 82% 0.00 mm 0.00 W/m2
22:14 28.0 °C 24.0 °C 1014.1 hPa NW 5 km/h 8 km/h 81% 0.00 mm 0.00 W/m2
22:19 28.0 °C 24.0 °C 1014.3 hPa WSW 6 km/h 8 km/h 81% 0.00 mm 0.00 W/m2
22:24 28.0 °C 24.0 °C 1014.4 hPa West 5 km/h 8 km/h 80% 0.00 mm 0.00 W/m2
22:29 28.0 °C 24.0 °C 1014.4 hPa West 5 km/h 8 km/h 80% 0.00 mm 0.00 W/m2
22:34 28.0 °C 24.0 °C 1014.5 hPa North 4 km/h 4 km/h 80% 0.00 mm 0.00 W/m2
22:39 28.0 °C 24.0 °C 1014.4 hPa North 6 km/h 8 km/h 80% 0.00 mm 0.00 W/m2
22:44 28.0 °C 24.0 °C 1014.3 hPa SSW 10 km/h 12 km/h 80% 0.00 mm 0.00 W/m2
22:49 28.0 °C 24.0 °C 1014.3 hPa WSW 5 km/h 8 km/h 80% 0.00 mm 0.00 W/m2
22:54 28.0 °C 24.0 °C 1014.1 hPa WSW 4 km/h 4 km/h 80% 0.00 mm 0.00 W/m2
22:59 28.0 °C 24.0 °C 1014.0 hPa Calm     80% 0.00 mm 0.00 W/m2
23:04 28.0 °C 24.0 °C 1014.0 hPa Calm     80% 0.00 mm 0.00 W/m2
23:09 28.0 °C 24.0 °C 1014.2 hPa WNW 2 km/h 4 km/h 80% 0.00 mm 0.00 W/m2
23:14 28.0 °C 24.0 °C 1014.2 hPa WSW 5 km/h 8 km/h 80% 0.00 mm 0.00 W/m2
23:19 28.0 °C 24.0 °C 1014.2 hPa WNW 3 km/h 4 km/h 80% 0.00 mm 0.00 W/m2
23:24 28.0 °C 24.0 °C 1014.2 hPa NW 2 km/h 4 km/h 79% 0.00 mm 0.00 W/m2
23:29 28.0 °C 24.0 °C 1014.1 hPa WNW 3 km/h 4 km/h 79% 0.00 mm 0.00 W/m2
23:34 28.0 °C 24.0 °C 1014.0 hPa Calm     79% 0.00 mm 0.00 W/m2
23:39 28.0 °C 24.0 °C 1014.2 hPa WSW 2 km/h 4 km/h 79% 0.00 mm 0.00 W/m2
23:44 28.0 °C 24.0 °C 1014.0 hPa SSW 3 km/h 4 km/h 79% 0.00 mm 0.00 W/m2
23:49 28.0 °C 24.0 °C 1013.8 hPa SE 2 km/h 4 km/h 79% 0.00 mm 0.00 W/m2
23:54 28.0 °C 24.0 °C 1013.8 hPa Calm     79% 0.00 mm 0.00 W/m2
23:59 28.0 °C 24.0 °C 1013.8 hPa ESE 2 km/h 4 km/h 78% 0.00 mm 0.00 W/m2
PIMOHWEATHER Philippines
Compliments of Weather Underground - 2 mb